Measurements were made at the meteorological tower in Juelich (50.90 N / 6.40 E) at an altitude of 100 m,
"Instrument: Fast Greenhouse Gas Analyzer (FGGA), Los Gatos Inc.",
Responsible PI: Dr. Marc von Hobe; Forschungszentrum Juelich GmbH; IEK-7; email: m.von.hobe@fz-juelich.de,
NaN or negative numbers are fill values (i.e. no valid measurements were made at that time),
Uncertainties are given as the 1-sigma standard deviation over each 10 minute intervals. In each interval ~600 individual measurements are carried out so that the standard error of the mean is approximately sigma/sqrt(600).,
time_utc,CO2_ppm,stdev_CO2_ppm,CH4_ppm,stdev_CH4_ppm,H2O_ppm,stdev_H2O_ppm
"2015-03-01 00:05:00 000",408.960,4.60599,1.94600,0.00317292,5094.78,82.8470
"2015-03-01 00:15:00 000",402.217,0.701092,1.94578,0.00307082,5111.59,82.0589
"2015-03-01 00:25:00 000",402.060,0.682123,1.94560,0.00315476,5173.76,82.5790
"2015-03-01 00:35:00 000",402.264,0.652843,1.94351,0.00318305,5273.73,82.1310
"2015-03-01 00:45:00 000",402.211,0.643885,1.94181,0.00314195,5346.94,83.8443
"2015-03-01 00:55:00 000",402.069,0.631321,1.94103,0.00323740,5392.59,81.1277
"2015-03-01 01:05:00 000",402.243,0.656308,1.94061,0.00320010,5551.30,112.658
"2015-03-01 01:15:00 000",402.403,0.730857,1.94109,0.00298375,5694.10,77.5808
"2015-03-01 01:25:00 000",402.968,1.04328,1.94277,0.00299012,5706.69,76.1437
"2015-03-01 01:35:00 000",401.939,0.689460,1.94488,0.00323084,5791.86,80.3038
"2015-03-01 01:45:00 000",401.829,0.672068,1.94489,0.00323705,5810.22,78.6087
"2015-03-01 01:55:00 000",401.839,0.721821,1.94597,0.00322520,5808.55,78.3328
"2015-03-01 02:05:00 000",401.656,0.631030,1.94615,0.00340259,5891.56,84.5665
"2015-03-01 02:15:00 000",401.363,0.651242,1.94501,0.00310248,5983.69,86.3445
"2015-03-01 02:25:00 000",401.455,0.695868,1.94574,0.00338338,6049.85,89.8972
"2015-03-01 02:35:00 000",401.615,0.649518,1.94638,0.00315728,6203.33,98.4441
"2015-03-01 02:45:00 000",401.805,0.650168,1.94425,0.00348361,6367.08,93.7976
"2015-03-01 02:55:00 000",402.032,0.649564,1.94425,0.00316226,6520.39,90.3953
"2015-03-01 03:05:00 000",402.438,0.647263,1.94497,0.00321680,6580.67,82.3134
"2015-03-01 03:15:00 000",402.199,0.655870,1.94581,0.00351348,6546.26,85.6389
"2015-03-01 03:25:00 000",402.309,0.665965,1.94380,0.00323938,6651.54,95.2544
"2015-03-01 03:35:00 000",402.672,0.656402,1.94410,0.00331187,6727.96,83.4544
"2015-03-01 03:45:00 000",404.539,1.87104,1.94301,0.00349854,6825.52,86.1625
"2015-03-01 03:55:00 000",405.893,2.72740,1.94154,0.00345081,6874.82,84.7361
"2015-03-01 04:05:00 000",404.377,1.94866,1.94157,0.00351022,6854.41,98.2002
"2015-03-01 04:15:00 000",406.009,3.10271,1.94154,0.00342233,6992.24,97.6283
"2015-03-01 04:25:00 000",415.115,5.97612,1.93998,0.00343981,7185.77,119.878
"2015-03-01 04:35:00 000",426.924,4.88099,1.93774,0.00335289,7435.90,109.361
"2015-03-01 04:45:00 000",426.286,4.47938,1.93648,0.00320615,7659.15,97.9290
"2015-03-01 04:55:00 000",420.497,6.35612,1.93741,0.00293525,7748.33,82.9564
"2015-03-01 05:05:00 000",404.031,1.60243,1.93745,0.00319790,7768.63,81.4478
"2015-03-01 05:15:00 000",402.827,0.680278,1.93639,0.00324180,7699.68,93.0043
"2015-03-01 05:25:00 000",402.647,0.716912,1.93540,0.00300585,7594.97,79.4833
"2015-03-01 05:35:00 000",412.029,7.30891,1.93432,0.00305765,7640.68,86.6195
"2015-03-01 05:45:00 000",412.046,3.02733,1.93450,0.00327883,7668.73,77.6995
"2015-03-01 05:55:00 000",416.312,4.11532,1.93311,0.00304760,7714.76,82.5178
"2015-03-01 06:05:00 000",411.366,6.09670,1.93264,0.00307510,7798.87,81.9646
"2015-03-01 06:15:00 000",404.116,1.03140,1.93369,0.00312023,7853.90,75.4902
"2015-03-01 06:25:00 000",403.386,0.652809,1.93576,0.00317419,7849.95,79.2481
"2015-03-01 06:35:00 000",403.406,0.650308,1.93845,0.00308827,7807.46,81.9119
"2015-03-01 06:45:00 000",403.656,0.630454,1.93558,0.00320420,7887.89,79.0134
"2015-03-01 06:55:00 000",403.540,0.622965,1.93279,0.00319398,7977.08,86.4411
"2015-03-01 07:05:00 000",403.544,0.634626,1.93031,0.00297689,8179.80,89.6472
"2015-03-01 07:15:00 000",403.153,0.679354,1.92955,0.00310796,8307.85,75.8879
"2015-03-01 07:25:00 000",402.825,0.689097,1.92737,0.00305955,8350.58,75.7107
"2015-03-01 07:35:00 000",402.862,0.626881,1.92641,0.00302103,8352.64,73.2713
"2015-03-01 07:45:00 000",403.046,0.648900,1.93054,0.00371338,8373.89,81.8974
"2015-03-01 07:55:00 000",403.223,0.623815,1.93253,0.00305087,8431.69,81.7591
"2015-03-01 08:05:00 000",402.764,0.653489,1.93061,0.00330441,8499.58,80.6236
"2015-03-01 08:15:00 000",402.895,0.637325,1.92690,0.00329138,8698.43,154.119
"2015-03-01 08:25:00 000",402.256,0.630182,1.92478,0.00322194,9004.58,103.613
"2015-03-01 08:35:00 000",402.545,0.649213,1.92565,0.00454259,8838.00,147.919
"2015-03-01 08:45:00 000",402.310,0.630358,1.93400,0.00682201,8448.88,271.494
"2015-03-01 08:55:00 000",402.385,0.629079,1.92481,0.00442155,8098.13,163.051
"2015-03-01 09:05:00 000",401.729,0.636736,1.92970,0.00988349,8222.11,150.365
"2015-03-01 09:15:00 000",401.233,0.615834,1.92628,0.0131293,7636.45,158.372
"2015-03-01 09:25:00 000",401.118,0.622242,1.92698,0.00870441,7373.50,120.055
"2015-03-01 09:35:00 000",400.879,0.637297,1.93276,0.00946126,7509.34,201.365
"2015-03-01 09:45:00 000",400.447,0.605291,1.92659,0.00994270,7807.16,129.075
"2015-03-01 09:55:00 000",400.785,0.607665,1.93454,0.00837536,7274.56,168.733
"2015-03-01 10:05:00 000",400.831,0.573952,1.93648,0.00765004,7237.73,159.914
"2015-03-01 10:15:00 000",400.816,0.625247,1.91980,0.0104513,7164.63,184.652
"2015-03-01 10:25:00 000",401.251,0.606564,1.93054,0.0145676,6807.60,122.299
"2015-03-01 10:35:00 000",401.525,0.623198,1.91354,0.00497875,6472.99,116.800
"2015-03-01 10:45:00 000",401.143,0.620699,1.92669,0.00936931,6373.43,114.793
"2015-03-01 10:55:00 000",401.108,0.668821,1.92491,0.0103258,6331.09,121.545
"2015-03-01 11:05:00 000",400.848,0.582826,1.92416,0.00846764,6335.22,111.043
"2015-03-01 11:15:00 000",400.735,0.600935,1.92892,0.00708380,6419.32,121.225
"2015-03-01 11:25:00 000",400.897,0.560336,1.93554,0.0104230,6516.63,115.125
"2015-03-01 11:35:00 000",400.929,0.624522,1.91835,0.00579970,6479.39,125.936
"2015-03-01 11:45:00 000",401.222,0.596478,1.92114,0.00777918,6294.03,110.643
"2015-03-01 11:55:00 000",401.834,0.632165,1.92204,0.00864099,6214.29,112.111
"2015-03-01 12:05:00 000",401.998,0.580097,1.92127,0.00640278,5912.67,121.154
"2015-03-01 12:15:00 000",401.934,0.590024,1.92511,0.00947323,5863.02,101.303
"2015-03-01 12:25:00 000",401.615,0.653031,1.93345,0.00830875,5896.98,112.625
"2015-03-01 12:35:00 000",401.250,0.582634,1.92882,0.00968850,5974.71,103.368
"2015-03-01 12:45:00 000",401.403,0.599310,1.92459,0.00885728,5989.89,91.4182
"2015-03-01 12:55:00 000",401.406,0.579683,1.92664,0.0124159,5981.06,101.486
"2015-03-01 13:05:00 000",401.310,0.598815,1.92941,0.0113013,6004.58,99.5691
"2015-03-01 13:15:00 000",400.820,0.616888,1.92979,0.0180328,5984.28,107.111
"2015-03-01 13:25:00 000",400.678,0.564240,1.97339,0.0218797,6108.85,108.039
"2015-03-01 13:35:00 000",400.543,0.633460,1.92278,0.0172791,6130.30,108.553
"2015-03-01 13:45:00 000",400.421,0.642042,1.91854,0.00948406,6067.89,128.787
"2015-03-01 13:55:00 000",400.340,0.666691,1.94446,0.0192300,6169.13,190.732
"2015-03-01 14:05:00 000",400.441,0.660166,1.93091,0.0102175,6801.12,259.529
"2015-03-01 14:15:00 000",400.527,0.609371,1.91377,0.00428431,7300.16,139.439
"2015-03-01 14:25:00 000",400.507,0.602868,1.91243,0.00310916,7785.30,140.961
"2015-03-01 14:35:00 000",400.624,0.612839,1.91506,0.00331093,7958.02,82.0523
"2015-03-01 14:45:00 000",400.708,0.593858,1.91545,0.00344394,7888.66,132.629
"2015-03-01 14:55:00 000",400.998,0.650328,1.91938,0.00524994,7502.71,178.158
"2015-03-01 15:05:00 000",401.288,0.594490,1.92457,0.00727993,6898.01,168.616
"2015-03-01 15:15:00 000",401.152,0.560448,1.93651,0.0118394,6789.59,121.661
"2015-03-01 15:25:00 000",401.309,0.581033,1.92812,0.00762042,6689.08,187.202
"2015-03-01 15:35:00 000",401.442,0.654664,1.92374,0.00591833,6676.18,152.407
"2015-03-01 15:45:00 000",401.417,0.617219,1.92307,0.00506986,6579.82,129.005
"2015-03-01 15:55:00 000",401.742,0.623372,1.91908,0.00367453,6603.67,99.2716
"2015-03-01 16:05:00 000",401.889,0.636752,1.92019,0.00310801,6693.60,123.195
"2015-03-01 16:15:00 000",402.090,0.613867,1.91994,0.00343692,6724.06,99.6588
"2015-03-01 16:25:00 000",401.914,0.657481,1.91653,0.00348942,6874.60,106.389
"2015-03-01 16:35:00 000",401.772,0.612579,1.91571,0.00306836,6775.73,96.6323
"2015-03-01 16:45:00 000",401.534,0.642417,1.91525,0.00330168,6757.89,95.7268
"2015-03-01 16:55:00 000",401.403,0.632244,1.92041,0.00582112,6736.25,97.4953
"2015-03-01 17:05:00 000",401.719,0.599721,1.93939,0.00856481,6775.33,89.9147
"2015-03-01 17:15:00 000",401.372,0.658517,1.92383,0.00354198,6800.17,96.4499
"2015-03-01 17:25:00 000",401.210,0.588884,1.92403,0.00319987,6806.06,93.5429
"2015-03-01 17:35:00 000",400.957,0.594044,1.94133,0.0129599,6812.59,98.9273
"2015-03-01 17:45:00 000",400.951,0.604515,1.96395,0.0154055,6921.55,89.0443
"2015-03-01 17:55:00 000",401.230,0.615408,1.96859,0.0155169,7037.26,90.5700
"2015-03-01 18:05:00 000",401.611,0.673529,1.96607,0.0140181,7178.26,89.8168
"2015-03-01 18:15:00 000",402.085,0.616166,1.94559,0.00932498,7264.20,78.4943
"2015-03-01 18:25:00 000",402.329,0.605147,1.93251,0.00319911,7323.37,82.4879
"2015-03-01 18:35:00 000",402.606,0.631730,1.93826,0.00347806,7410.10,79.0903
"2015-03-01 18:45:00 000",403.164,0.685513,1.94503,0.00597330,7409.39,79.3587
"2015-03-01 18:55:00 000",403.024,0.646608,1.95989,0.0103153,7463.50,82.5343
"2015-03-01 19:05:00 000",403.274,0.822753,1.97214,0.0308888,7545.67,78.5966
"2015-03-01 19:15:00 000",404.061,0.981106,1.99870,0.0262539,7510.45,83.2576
"2015-03-01 19:25:00 000",404.426,0.863504,1.97425,0.0284468,7504.61,77.3723
"2015-03-01 19:35:00 000",403.624,0.610741,1.95366,0.00339948,7548.78,82.5072
"2015-03-01 19:45:00 000",403.807,0.658070,1.95173,0.00455079,7567.57,82.9933
"2015-03-01 19:55:00 000",404.070,0.637358,1.94226,0.00477784,7364.80,93.3685
"2015-03-01 20:05:00 000",403.696,0.664630,1.93834,0.00363551,7447.17,94.4044
"2015-03-01 20:15:00 000",403.805,0.698492,1.94302,0.00351974,7430.01,106.419
"2015-03-01 20:25:00 000",404.762,0.739605,1.94330,0.00520832,7235.56,88.6817
"2015-03-01 20:35:00 000",404.260,0.767973,1.93302,0.00488169,7221.51,83.0206
"2015-03-01 20:45:00 000",403.520,0.644328,1.92701,0.00301291,7148.52,98.0980
"2015-03-01 20:55:00 000",403.430,0.628052,1.92637,0.00303463,7019.06,79.1230
"2015-03-01 21:05:00 000",402.831,0.671906,1.92758,0.00296356,7007.61,80.3508
"2015-03-01 21:15:00 000",402.349,0.615636,1.92863,0.00293924,7029.82,76.8602
"2015-03-01 21:25:00 000",402.647,0.696983,1.92656,0.00375342,7015.72,77.0935
"2015-03-01 21:35:00 000",409.644,3.97296,1.92395,0.00287190,7011.84,83.7492
"2015-03-01 21:45:00 000",408.985,3.68237,1.92432,0.00298368,7064.56,77.6369
"2015-03-01 21:55:00 000",405.041,1.60181,1.92593,0.00303239,7074.90,79.5217
"2015-03-01 22:05:00 000",404.821,1.28654,1.92659,0.00296551,7064.52,79.8523
"2015-03-01 22:15:00 000",402.943,0.637300,1.92732,0.00297485,7071.01,83.4140
"2015-03-01 22:25:00 000",402.493,0.635798,1.92879,0.00290471,7044.15,81.7609
"2015-03-01 22:35:00 000",402.175,0.609541,1.92758,0.00317035,7021.81,80.1754
"2015-03-01 22:45:00 000",402.170,0.596872,1.92737,0.00292885,6992.42,82.2052
"2015-03-01 22:55:00 000",402.374,0.613846,1.92748,0.00296206,6997.29,81.6452
"2015-03-01 23:05:00 000",402.818,0.640908,1.92614,0.00284358,7028.04,79.0950
"2015-03-01 23:15:00 000",402.242,0.741450,1.92616,0.00313079,6952.47,139.289
"2015-03-01 23:25:00 000",401.936,0.671091,1.92551,0.00333372,6790.72,132.631
"2015-03-01 23:35:00 000",401.702,0.616366,1.92348,0.00300416,7135.94,92.7231
"2015-03-01 23:45:00 000",402.134,0.665591,1.92317,0.00275852,7141.03,115.644
"2015-03-01 23:55:00 000",402.195,0.632595,1.92449,0.00316633,7169.11,121.391
"2015-03-02 00:05:00 000",401.838,0.708803,1.92847,0.00360983,7519.82,133.391
"2015-03-02 00:15:00 000",401.429,0.740929,1.94507,0.0194273,7535.56,377.537
"2015-03-02 00:25:00 000",399.861,0.640887,1.92087,0.0156501,6257.89,136.771
"2015-03-02 00:35:00 000",400.257,0.767506,1.94627,0.0126364,6797.79,173.081
"2015-03-02 00:45:00 000",401.159,0.657679,1.95261,0.0146104,7250.53,123.536
"2015-03-02 00:55:00 000",401.045,0.676677,1.95355,0.0128350,7518.43,109.320
"2015-03-02 01:05:00 000",401.415,0.665091,1.94750,0.0167400,7670.55,81.4622
"2015-03-02 01:15:00 000",401.641,0.634267,1.97420,0.0162543,7666.61,88.3705
"2015-03-02 01:25:00 000",402.032,0.683664,1.94289,0.0122180,7530.64,94.1944
"2015-03-02 01:35:00 000",402.208,0.660813,1.95933,0.0166344,7424.56,86.9381
"2015-03-02 01:45:00 000",402.444,0.646004,1.95702,0.0186097,7326.03,86.0698
"2015-03-02 01:55:00 000",402.592,0.667254,1.97442,0.0191569,7180.60,87.2000
"2015-03-02 02:05:00 000",403.058,0.804045,1.98539,0.0206346,7114.87,85.8582
"2015-03-02 02:15:00 000",403.834,0.690527,1.99019,0.0201219,7029.31,88.0813
"2015-03-02 02:25:00 000",404.258,0.688344,1.96516,0.0299341,6923.86,82.2708
"2015-03-02 02:35:00 000",403.961,0.736474,1.97277,0.0217767,6903.02,86.1190
"2015-03-02 02:45:00 000",404.006,0.678289,1.97866,0.0223987,6850.73,93.5884
"2015-03-02 02:55:00 000",404.234,0.654180,2.00789,0.0255775,6636.92,113.125
"2015-03-02 03:05:00 000",404.463,0.699057,2.02895,0.0268644,6470.08,79.9583
"2015-03-02 03:15:00 000",404.888,0.622851,2.00973,0.0249519,6407.77,89.7357
"2015-03-02 03:25:00 000",405.073,0.636309,2.02864,0.0297997,6342.13,81.2757
"2015-03-02 03:35:00 000",405.231,0.641483,2.05367,0.0270819,6263.38,85.9037
"2015-03-02 03:45:00 000",404.655,0.672423,1.97479,0.0210720,6190.26,81.5036
"2015-03-02 03:55:00 000",404.905,0.699665,1.97821,0.0330606,6141.78,79.2464
"2015-03-02 04:05:00 000",404.957,0.687837,2.00462,0.0233342,6089.34,93.5954
"2015-03-02 04:15:00 000",405.308,0.693188,2.01673,0.0433961,6026.40,83.2474
"2015-03-02 04:25:00 000",405.403,0.671229,2.00692,0.0399573,5975.95,77.1211
"2015-03-02 04:35:00 000",405.362,0.647221,1.96957,0.00957717,5986.13,77.9965
"2015-03-02 04:45:00 000",405.867,0.688645,2.00364,0.0224677,6031.10,80.9042
"2015-03-02 04:55:00 000",405.632,0.670512,1.98091,0.0197021,6069.28,83.9720
"2015-03-02 05:05:00 000",405.814,0.668018,1.96381,0.0190748,6064.21,82.7307
"2015-03-02 05:15:00 000",406.006,0.642813,2.00929,0.0319454,6035.00,82.3647
"2015-03-02 05:25:00 000",406.165,0.706415,1.99826,0.0317098,6013.86,83.0168
"2015-03-02 05:35:00 000",406.421,0.688016,2.01494,0.0469487,5995.23,79.6846
"2015-03-02 05:45:00 000",406.111,0.677121,2.00076,0.0483414,6027.85,78.2322
"2015-03-02 05:55:00 000",406.558,0.661353,2.10451,0.0404555,6040.57,76.3363
"2015-03-02 06:05:00 000",406.795,0.788805,2.09471,0.0390234,6034.83,78.8086
"2015-03-02 06:15:00 000",407.635,0.677434,2.11827,0.0346135,6011.02,81.6619
"2015-03-02 06:25:00 000",407.382,0.699429,2.05124,0.0434044,5996.96,79.1696
"2015-03-02 06:35:00 000",407.247,0.653217,1.96373,0.0115703,5990.99,78.9670
"2015-03-02 06:45:00 000",406.981,0.701659,1.98842,0.0195733,5948.60,83.7813
"2015-03-02 06:55:00 000",406.531,0.692202,1.95664,0.0154388,5790.43,90.7174
"2015-03-02 07:05:00 000",405.728,0.679191,1.94076,0.00353192,5757.68,94.9319
"2015-03-02 07:15:00 000",405.680,0.612500,1.94018,0.00309283,5930.34,81.2156
"2015-03-02 07:25:00 000",406.143,0.653438,1.94270,0.00348373,5974.21,92.0439
"2015-03-02 07:35:00 000",406.577,0.675349,1.94643,0.00316674,6148.46,90.8941
"2015-03-02 07:45:00 000",406.852,0.624697,1.95390,0.00505976,6254.49,82.6044
"2015-03-02 07:55:00 000",407.203,0.660795,1.96095,0.00362712,6338.56,87.1297
"2015-03-02 08:05:00 000",407.504,0.667536,1.96338,0.00319217,6400.27,82.8740
"2015-03-02 08:15:00 000",407.508,0.643219,1.96437,0.00332022,6405.27,83.0944
"2015-03-02 08:25:00 000",407.681,0.648816,1.96533,0.00356995,6409.82,80.4401
"2015-03-02 08:35:00 000",407.398,0.690880,1.96830,0.00754200,6248.75,123.567
"2015-03-02 08:45:00 000",407.469,0.663711,1.97967,0.0153085,6153.16,86.1533
"2015-03-02 08:55:00 000",406.843,0.661263,1.96575,0.00390429,6332.73,121.893
"2015-03-02 09:05:00 000",406.533,0.639475,1.97162,0.00779003,6643.78,107.860
"2015-03-02 09:15:00 000",406.546,0.698779,1.96128,0.00616184,6817.76,85.1489
"2015-03-02 09:25:00 000",405.747,0.709670,1.95507,0.00528950,6717.18,89.8163
"2015-03-02 09:35:00 000",405.295,0.721982,1.95295,0.00579794,6650.28,88.8850
"2015-03-02 09:45:00 000",405.112,0.698928,1.95520,0.00899162,6514.20,97.7664
"2015-03-02 09:55:00 000",404.689,0.697147,1.96586,0.0100800,6325.17,101.716
"2015-03-02 10:05:00 000",404.092,0.705131,1.96822,0.0121959,6239.68,76.4870
"2015-03-02 10:15:00 000",404.030,0.684038,1.94990,0.00651708,5991.69,172.149
"2015-03-02 10:25:00 000",403.818,0.606300,1.94171,0.00355325,5547.69,102.260
"2015-03-02 10:35:00 000",403.529,0.590995,1.94231,0.00552481,5476.99,83.8108
"2015-03-02 10:45:00 000",403.659,0.682328,1.95416,0.0149888,5394.79,95.1172
"2015-03-02 10:55:00 000",403.583,0.643497,1.94977,0.00947552,5256.44,90.4220
"2015-03-02 11:05:00 000",403.518,0.631514,1.93808,0.00404712,5225.94,84.7070
"2015-03-02 11:15:00 000",403.521,0.630733,1.93739,0.00296086,5316.82,80.4048
"2015-03-02 11:25:00 000",403.343,0.683497,1.95666,0.00975448,5326.48,92.9666
"2015-03-02 11:35:00 000",403.290,0.675259,1.95939,0.0125106,5108.94,111.556
"2015-03-02 11:45:00 000",403.204,0.640453,1.95164,0.00747633,5039.51,126.343
"2015-03-02 11:55:00 000",403.402,0.617580,1.96068,0.0164240,5033.24,127.834
"2015-03-02 12:05:00 000",403.366,0.650422,1.95907,0.0100589,5115.76,103.979
"2015-03-02 12:15:00 000",403.062,0.624250,1.93633,0.00341585,5326.87,130.282
"2015-03-02 12:25:00 000",403.102,0.626048,1.93552,0.00386288,5288.15,159.283
"2015-03-02 12:35:00 000",403.147,0.633945,1.93362,0.00334606,5151.49,97.0332
"2015-03-02 12:45:00 000",403.051,0.628991,1.93158,0.00352319,5043.09,75.5928
"2015-03-02 12:55:00 000",402.673,0.672083,1.92978,0.00316936,5016.97,74.6869
"2015-03-02 13:05:00 000",402.603,0.623095,1.93747,0.00938989,4924.72,85.1265
"2015-03-02 13:15:00 000",402.606,0.629246,1.95201,0.0118488,4865.13,73.7801
"2015-03-02 13:25:00 000",402.707,0.629174,1.95172,0.0140053,4942.91,96.7982
"2015-03-02 13:35:00 000",402.594,0.644377,1.93397,0.00563657,5062.17,80.5181
"2015-03-02 13:45:00 000",402.629,0.623025,1.93664,0.0107191,4908.01,90.4076
"2015-03-02 13:55:00 000",402.795,0.654383,1.92777,0.00318967,4713.58,102.105
"2015-03-02 14:05:00 000",402.858,0.640935,1.92758,0.00310844,4512.24,132.159
"2015-03-02 14:15:00 000",403.212,0.680312,1.92740,0.00313303,5028.26,185.020
"2015-03-02 14:25:00 000",403.551,0.695321,1.92728,0.00322312,5469.31,121.034
"2015-03-02 14:35:00 000",403.618,0.684196,1.92732,0.00314355,5711.94,101.464
"2015-03-02 14:45:00 000",403.209,0.748165,1.92652,0.00504787,5799.81,206.005
"2015-03-02 14:55:00 000",402.851,0.671862,1.92883,0.00388365,5038.53,128.727
"2015-03-02 15:05:00 000",402.722,0.698441,1.94952,0.0209319,4911.23,88.2103
"2015-03-02 15:15:00 000",402.593,0.640562,1.93777,0.0141202,5047.07,107.087
"2015-03-02 15:25:00 000",402.936,0.639547,1.94547,0.0213629,5215.97,106.739
"2015-03-02 15:35:00 000",403.200,0.747619,1.95718,0.0153026,5421.66,101.350
"2015-03-02 15:45:00 000",403.734,0.725192,1.94927,0.0141257,5609.42,127.526
"2015-03-02 15:55:00 000",404.160,0.614624,1.96298,0.0233925,5834.29,154.210
"2015-03-02 16:05:00 000",404.699,0.764427,1.93604,0.0126533,6007.97,144.166
"2015-03-02 16:15:00 000",405.143,0.656600,1.97036,0.0241678,6178.84,157.230
"2015-03-02 16:25:00 000",405.287,0.637573,1.98980,0.0348531,6304.09,160.118
"2015-03-02 16:35:00 000",405.666,0.627057,2.02149,0.0319243,6462.30,155.119
"2015-03-02 16:45:00 000",405.521,0.625457,1.97833,0.0283702,6527.49,144.491
"2015-03-02 16:55:00 000",405.539,0.654766,1.98068,0.0229450,6626.27,135.141
"2015-03-02 17:05:00 000",405.719,0.653814,1.98074,0.0240226,6697.32,137.572
"2015-03-02 17:15:00 000",405.451,0.683555,1.99373,0.0205778,6691.78,123.590
"2015-03-02 17:25:00 000",405.141,0.676724,1.96701,0.0181923,6735.12,114.564
"2015-03-02 17:35:00 000",405.209,0.670987,1.98953,0.0231325,6770.40,108.372
"2015-03-02 17:45:00 000",404.793,0.724246,1.98470,0.0212583,6735.53,104.399
"2015-03-02 17:55:00 000",404.610,0.674801,1.99761,0.0281893,6711.79,98.3288
"2015-03-02 18:05:00 000",405.883,0.656387,1.96035,0.00786744,6649.68,95.0496
"2015-03-02 18:15:00 000",405.876,0.630381,1.95604,0.00705515,6623.79,97.1055
"2015-03-02 18:25:00 000",406.027,0.717859,1.97365,0.0185863,6539.23,104.304
"2015-03-02 18:35:00 000",405.931,1.03272,1.97527,0.0102576,6204.07,164.910
"2015-03-02 18:45:00 000",404.166,0.638977,1.98347,0.0124232,5922.44,94.6726
"2015-03-02 18:55:00 000",403.730,0.631352,1.95620,0.0101459,5827.42,94.8630
"2015-03-02 19:05:00 000",404.119,0.651890,1.96237,0.0122934,5715.16,99.4475
"2015-03-02 19:15:00 000",404.931,0.696274,1.98801,0.0187191,5588.11,102.151
"2015-03-02 19:25:00 000",405.745,0.656401,2.00779,0.0245569,5460.20,96.1597
"2015-03-02 19:35:00 000",405.935,0.666712,1.99330,0.0157445,5386.71,92.4993
"2015-03-02 19:45:00 000",406.640,0.646562,2.00297,0.0157419,5307.60,92.5832
"2015-03-02 19:55:00 000",407.177,0.691255,2.00503,0.0185527,5253.79,97.2352
"2015-03-02 20:05:00 000",407.665,0.671936,1.98125,0.0100185,5181.79,97.2015
"2015-03-02 20:15:00 000",406.976,0.701359,1.97478,0.00963752,5154.65,98.3218
"2015-03-02 20:25:00 000",406.915,0.659618,1.97716,0.00634366,5102.07,92.9167
"2015-03-02 20:35:00 000",406.374,0.651647,1.97174,0.00454111,5120.20,94.9262
"2015-03-02 20:45:00 000",405.744,0.646477,1.96605,0.00323884,5180.51,99.3583
"2015-03-02 20:55:00 000",405.104,0.633110,1.96627,0.00383091,5274.34,98.7340
"2015-03-02 21:05:00 000",404.688,0.628377,1.96514,0.00435491,5317.36,91.8346
"2015-03-02 21:15:00 000",404.520,0.630588,1.96444,0.00396951,5314.76,93.2513
"2015-03-02 21:25:00 000",404.207,0.597361,1.96329,0.00456401,5334.40,94.9533
"2015-03-02 21:35:00 000",404.262,0.648070,1.95980,0.00430438,5344.12,92.2336
"2015-03-02 21:45:00 000",404.552,0.617789,1.95959,0.00343156,5327.31,88.6884
"2015-03-02 21:55:00 000",404.715,0.613025,1.95791,0.00381851,5310.90,92.4729
"2015-03-02 22:05:00 000",404.568,0.631652,1.95444,0.00348614,5324.32,94.7669
"2015-03-02 22:15:00 000",404.390,0.656769,1.95261,0.00326103,5335.74,93.5627
"2015-03-02 22:25:00 000",404.409,0.602432,1.95267,0.00312351,5347.21,89.6158
"2015-03-02 22:35:00 000",404.393,0.650613,1.95489,0.00328884,5340.51,96.2779
"2015-03-02 22:45:00 000",404.315,0.638309,1.95392,0.00373255,5312.71,93.6595
"2015-03-02 22:55:00 000",404.083,0.622557,1.95200,0.00355900,5326.09,97.5911
"2015-03-02 23:05:00 000",404.177,0.667438,1.95114,0.00312464,5326.29,96.8544
"2015-03-02 23:15:00 000",404.409,0.614352,1.94933,0.00305852,5347.31,92.9815
"2015-03-02 23:25:00 000",404.710,0.640187,1.94888,0.00285403,5359.25,96.1669
"2015-03-02 23:35:00 000",404.843,0.644428,1.94884,0.00301980,5368.55,95.9646
"2015-03-02 23:45:00 000",404.694,0.611441,1.94945,0.00310343,5402.16,97.0656
"2015-03-02 23:55:00 000",404.988,0.662505,1.94748,0.00307894,5429.39,92.8807
"2015-03-03 00:05:00 000",405.894,0.676844,1.94863,0.00301818,5438.21,102.536
"2015-03-03 00:15:00 000",405.767,0.662113,1.94948,0.00302976,5429.85,99.6097
"2015-03-03 00:25:00 000",405.499,0.644277,1.95165,0.00315394,5400.37,101.168
"2015-03-03 00:35:00 000",405.357,0.677463,1.95274,0.00321775,5369.90,102.379
"2015-03-03 00:45:00 000",405.037,0.670697,1.95430,0.00334264,5419.37,110.677
"2015-03-03 00:55:00 000",404.672,0.610432,1.95373,0.00319372,5417.86,101.895
"2015-03-03 01:05:00 000",404.737,0.661904,1.95786,0.00337270,5439.18,107.254
"2015-03-03 01:15:00 000",404.689,0.655775,1.96035,0.00323866,5462.28,112.691
"2015-03-03 01:25:00 000",404.695,0.671103,1.96122,0.00313352,5493.90,113.877
"2015-03-03 01:35:00 000",404.915,0.618750,1.96102,0.00314558,5518.44,119.743
"2015-03-03 01:45:00 000",405.130,0.613446,1.96182,0.00315787,5509.53,123.662
"2015-03-03 01:55:00 000",404.869,0.621204,1.95961,0.00352795,5523.95,115.945